Total_Precipitation_Accumulation
0.03 0.03 0.03 0.02 0.02 0.00 0.00 0.00 0.00 0.00 0.00 0.00 0.00 0.00 0.00 0.01 0.01 0.03 0.01 0.00 0.00 0.00 0.02 0.06 0.14 0.16 0.12 0.10 0.06 0.04 0.03 0.04 0.05 0.07 0.07 0.06 0.05 0.05 0.06 0.08 0.10 0.12 0.15 0.19 0.25 0.27 0.24 0.23 0.18
0.05 0.06 0.07 0.05 0.02 0.01 0.00 0.00 0.00 0.00 0.00 0.00 0.00 0.00 0.00 0.00 0.00 0.00 0.01 0.00 0.00 0.00 0.02 0.05 0.10 0.13 0.11 0.08 0.04 0.03 0.03 0.04 0.05 0.06 0.07 0.07 0.05 0.05 0.06 0.08 0.08 0.09 0.12 0.15 0.13 0.11 0.09 0.11 0.09
0.11 0.11 0.12 0.09 0.04 0.01 0.00 0.00 0.00 0.00 0.00 0.00 0.00 0.00 0.00 0.00 0.00 0.00 0.00 0.00 0.00 0.00 0.01 0.05 0.08 0.11 0.10 0.07 0.04 0.03 0.03 0.04 0.04 0.05 0.07 0.07 0.05 0.05 0.05 0.06 0.06 0.06 0.06 0.05 0.05 0.04 0.03 0.04 0.04
0.19 0.21 0.18 0.12 0.04 0.00 0.00 0.00 0.00 0.00 0.00 0.00 0.00 0.00 0.00 0.00 0.00 0.00 0.00 0.00 0.00 0.00 0.01 0.05 0.08 0.10 0.09 0.06 0.04 0.04 0.04 0.04 0.04 0.04 0.04 0.06 0.06 0.05 0.04 0.04 0.03 0.03 0.03 0.03 0.03 0.02 0.02 0.02 0.01
0.32 0.29 0.23 0.14 0.04 0.00 0.00 0.00 0.00 0.00 0.00 0.00 0.00 0.00 0.01 0.00 0.00 0.00 0.01 0.01 0.00 0.01 0.02 0.06 0.09 0.09 0.08 0.06 0.04 0.04 0.04 0.04 0.03 0.03 0.03 0.05 0.06 0.06 0.04 0.02 0.02 0.01 0.02 0.02 0.02 0.02 0.01 0.01 0.01
0.41 0.31 0.22 0.11 0.02 0.00 0.00 0.00 0.01 0.00 0.00 0.00 0.00 0.01 0.03 0.01 0.01 0.01 0.02 0.02 0.01 0.01 0.03 0.07 0.10 0.09 0.07 0.06 0.05 0.05 0.04 0.03 0.03 0.03 0.03 0.04 0.05 0.05 0.03 0.02 0.02 0.02 0.02 0.02 0.02 0.02 0.01 0.01 0.01
0.36 0.26 0.15 0.06 0.01 0.00 0.00 0.00 0.00 0.00 0.00 0.00 0.00 0.02 0.08 0.06 0.04 0.03 0.04 0.04 0.04 0.02 0.04 0.07 0.10 0.10 0.08 0.07 0.06 0.05 0.04 0.03 0.03 0.03 0.03 0.03 0.03 0.03 0.02 0.02 0.03 0.03 0.02 0.02 0.02 0.03 0.02 0.02 0.01
0.31 0.29 0.14 0.06 0.02 0.00 0.00 0.00 0.00 0.00 0.00 0.00 0.00 0.02 0.10 0.07 0.06 0.07 0.09 0.11 0.09 0.07 0.06 0.06 0.09 0.09 0.08 0.07 0.06 0.04 0.03 0.02 0.02 0.02 0.01 0.01 0.01 0.01 0.01 0.01 0.01 0.01 0.01 0.02 0.02 0.03 0.02 0.02 0.01
0.33 0.36 0.16 0.04 0.02 0.01 0.00 0.00 0.00 0.00 0.00 0.00 0.00 0.02 0.06 0.07 0.11 0.14 0.15 0.17 0.14 0.11 0.09 0.07 0.08 0.08 0.08 0.07 0.06 0.04 0.03 0.02 0.02 0.01 0.01 0.00 0.01 0.01 0.01 0.01 0.00 0.01 0.01 0.01 0.01 0.02 0.02 0.01 0.01
0.34 0.26 0.11 0.02 0.01 0.01 0.01 0.01 0.01 0.01 0.00 0.00 0.01 0.04 0.07 0.13 0.20 0.21 0.17 0.15 0.13 0.13 0.12 0.10 0.08 0.07 0.07 0.06 0.05 0.05 0.03 0.02 0.01 0.01 0.01 0.01 0.01 0.01 0.00 0.00 0.00 0.00 0.00 0.00 0.01 0.01 0.01 0.00 0.00
0.19 0.11 0.05 0.03 0.02 0.02 0.03 0.03 0.02 0.01 0.01 0.00 0.01 0.03 0.09 0.15 0.20 0.21 0.23 0.21 0.16 0.13 0.10 0.11 0.11 0.08 0.06 0.06 0.04 0.04 0.03 0.02 0.01 0.01 0.01 0.01 0.01 0.00 0.00 0.00 0.00 0.00 0.00 0.00 0.00 0.00 0.00 0.00 0.00
0.11 0.06 0.05 0.05 0.05 0.04 0.03 0.02 0.02 0.02 0.00 0.00 0.01 0.03 0.07 0.11 0.14 0.16 0.19 0.23 0.23 0.17 0.10 0.11 0.14 0.11 0.07 0.05 0.04 0.04 0.03 0.02 0.01 0.01 0.01 0.01 0.01 0.00 0.00 0.00 0.00 0.00 0.00 0.00 0.00 0.00 0.00 0.00 0.00
0.12 0.07 0.06 0.07 0.06 0.05 0.04 0.03 0.02 0.01 0.01 0.01 0.02 0.06 0.09 0.11 0.14 0.17 0.19 0.24 0.30 0.24 0.17 0.15 0.15 0.14 0.11 0.07 0.05 0.03 0.03 0.03 0.02 0.01 0.01 0.01 0.01 0.00 0.00 0.00 0.00 0.00 0.00 0.00 0.00 0.00 0.00 0.00 0.00
0.11 0.10 0.08 0.07 0.07 0.06 0.06 0.04 0.03 0.01 0.01 0.02 0.04 0.05 0.07 0.10 0.13 0.17 0.18 0.17 0.17 0.21 0.23 0.22 0.21 0.19 0.15 0.09 0.06 0.03 0.02 0.02 0.02 0.01 0.01 0.01 0.01 0.01 0.00 0.00 0.00 0.00 0.00 0.00 0.00 0.00 0.00 0.00 0.00
0.18 0.21 0.16 0.10 0.08 0.06 0.08 0.08 0.04 0.01 0.01 0.02 0.03 0.04 0.05 0.07 0.09 0.10 0.10 0.09 0.12 0.16 0.22 0.25 0.26 0.25 0.18 0.13 0.11 0.07 0.06 0.05 0.04 0.03 0.02 0.02 0.01 0.01 0.00 0.00 0.00 0.00 0.00 0.00 0.00 0.00 0.00 0.00 0.00
0.42 0.39 0.27 0.12 0.10 0.07 0.08 0.07 0.02 0.01 0.01 0.01 0.02 0.03 0.04 0.05 0.06 0.06 0.06 0.09 0.14 0.18 0.20 0.22 0.25 0.25 0.27 0.23 0.18 0.16 0.13 0.11 0.09 0.07 0.04 0.03 0.02 0.01 0.01 0.00 0.00 0.00 0.00 0.00 0.00 0.00 0.00 0.00 0.00
0.62 0.44 0.21 0.11 0.09 0.07 0.07 0.04 0.02 0.01 0.02 0.02 0.02 0.02 0.03 0.03 0.04 0.05 0.06 0.08 0.12 0.17 0.21 0.24 0.24 0.27 0.36 0.43 0.39 0.30 0.26 0.24 0.21 0.16 0.09 0.05 0.04 0.03 0.02 0.01 0.01 0.01 0.01 0.00 0.00 0.00 0.00 0.00 0.00
0.37 0.22 0.15 0.09 0.06 0.07 0.05 0.02 0.02 0.01 0.01 0.01 0.01 0.02 0.02 0.02 0.03 0.04 0.06 0.08 0.12 0.17 0.22 0.25 0.29 0.32 0.43 0.56 0.55 0.47 0.38 0.34 0.29 0.23 0.18 0.14 0.08 0.05 0.03 0.02 0.02 0.02 0.01 0.01 0.01 0.01 0.01 0.01 0.01
0.23 0.19 0.15 0.10 0.06 0.07 0.04 0.02 0.02 0.01 0.01 0.01 0.01 0.02 0.02 0.02 0.03 0.04 0.06 0.08 0.10 0.13 0.17 0.19 0.22 0.28 0.38 0.39 0.40 0.41 0.39 0.39 0.34 0.29 0.28 0.24 0.18 0.13 0.08 0.05 0.03 0.03 0.02 0.02 0.02 0.02 0.02 0.01 0.01
0.37 0.31 0.20 0.14 0.09 0.08 0.05 0.02 0.02 0.02 0.01 0.01 0.01 0.01 0.02 0.02 0.02 0.03 0.04 0.04 0.06 0.08 0.12 0.16 0.21 0.28 0.29 0.27 0.33 0.47 0.58 0.55 0.52 0.47 0.35 0.27 0.24 0.22 0.17 0.11 0.08 0.07 0.05 0.05 0.05 0.05 0.04 0.03 0.03
0.50 0.39 0.26 0.18 0.15 0.13 0.09 0.05 0.02 0.01 0.01 0.01 0.01 0.01 0.01 0.01 0.01 0.01 0.02 0.03 0.05 0.06 0.08 0.11 0.16 0.21 0.26 0.33 0.45 0.52 0.57 0.52 0.45 0.36 0.30 0.31 0.34 0.32 0.27 0.24 0.19 0.16 0.13 0.10 0.10 0.10 0.09 0.09 0.07
0.53 0.32 0.29 0.26 0.30 0.23 0.13 0.09 0.02 0.01 0.00 0.00 0.01 0.01 0.01 0.00 0.00 0.01 0.01 0.02 0.03 0.04 0.05 0.08 0.13 0.17 0.20 0.26 0.28 0.32 0.35 0.34 0.34 0.38 0.41 0.43 0.40 0.37 0.36 0.34 0.30 0.26 0.23 0.19 0.20 0.20 0.19 0.18 0.16
0.48 0.31 0.37 0.40 0.41 0.36 0.18 0.11 0.02 0.01 0.00 0.00 0.00 0.01 0.01 0.00 0.00 0.00 0.01 0.02 0.02 0.03 0.04 0.05 0.07 0.11 0.14 0.18 0.20 0.26 0.28 0.32 0.37 0.37 0.36 0.36 0.37 0.37 0.40 0.39 0.38 0.33 0.32 0.33 0.34 0.33 0.32 0.31 0.30
0.58 0.58 0.63 0.69 0.81 0.68 0.19 0.10 0.03 0.00 0.00 0.00 0.00 0.00 0.00 0.00 0.00 0.00 0.00 0.01 0.01 0.01 0.02 0.05 0.06 0.07 0.11 0.14 0.18 0.19 0.21 0.24 0.25 0.26 0.30 0.32 0.37 0.39 0.38 0.39 0.40 0.40 0.38 0.38 0.40 0.44 0.44 0.42 0.40
0.98 1.25 1.46 1.38 1.19 0.54 0.10 0.08 0.03 0.00 0.00 0.00 0.00 0.00 0.00 0.00 0.00 0.00 0.00 0.00 0.01 0.01 0.01 0.02 0.04 0.05 0.07 0.10 0.14 0.16 0.20 0.24 0.23 0.24 0.28 0.30 0.32 0.32 0.33 0.39 0.41 0.42 0.43 0.47 0.50 0.49 0.47 0.47 0.45
0.98 1.11 1.11 0.89 0.54 0.19 0.08 0.06 0.01 0.00 0.00 0.00 0.00 0.00 0.00 0.00 0.00 0.00 0.00 0.00 0.01 0.01 0.01 0.01 0.02 0.04 0.06 0.09 0.10 0.12 0.14 0.16 0.18 0.20 0.21 0.23 0.26 0.33 0.39 0.41 0.40 0.40 0.41 0.43 0.45 0.44 0.45 0.47 0.49
0.90 0.82 0.61 0.70 0.49 0.28 0.12 0.04 0.01 0.01 0.01 0.01 0.00 0.00 0.00 0.00 0.00 0.00 0.00 0.00 0.00 0.00 0.00 0.01 0.01 0.03 0.05 0.07 0.08 0.10 0.11 0.12 0.14 0.16 0.18 0.21 0.24 0.27 0.31 0.34 0.36 0.36 0.36 0.36 0.38 0.37 0.37 0.40 0.42
0.82 0.67 0.70 0.91 0.70 0.44 0.16 0.04 0.02 0.02 0.02 0.02 0.01 0.00 0.00 0.00 0.00 0.00 0.00 0.00 0.00 0.00 0.00 0.01 0.01 0.02 0.03 0.04 0.06 0.07 0.09 0.11 0.12 0.14 0.14 0.15 0.17 0.19 0.21 0.23 0.25 0.27 0.28 0.28 0.30 0.31 0.32 0.35 0.36
0.65 0.72 0.74 0.73 0.53 0.52 0.30 0.08 0.03 0.03 0.04 0.04 0.03 0.01 0.00 0.00 0.00 0.00 0.00 0.00 0.00 0.01 0.01 0.01 0.01 0.02 0.02 0.03 0.03 0.04 0.05 0.07 0.09 0.11 0.11 0.12 0.12 0.13 0.14 0.15 0.16 0.18 0.19 0.20 0.21 0.23 0.25 0.28 0.31
0.50 0.49 0.57 0.75 0.55 0.41 0.34 0.13 0.03 0.03 0.05 0.07 0.06 0.03 0.01 0.01 0.01 0.00 0.00 0.01 0.01 0.02 0.03 0.03 0.02 0.02 0.02 0.02 0.03 0.04 0.05 0.06 0.07 0.08 0.09 0.10 0.09 0.10 0.11 0.12 0.11 0.11 0.12 0.13 0.14 0.17 0.20 0.24 0.28